TimeEST,TemperatureF,Dew PointF,Humidity,Sea Level PressureIn,VisibilityMPH,Wind Direction,Wind SpeedMPH,Gust SpeedMPH,PrecipitationIn,Events,Conditions,WindDirDegrees,DateUTC
12:15 AM,52.9,43.3,70,29.92,7.0,SW,18.4,27.6,N/A,,Overcast,230,2012-11-23 05:15:00
12:35 AM,51.6,45.0,78,29.91,7.0,SW,20.7,27.6,0.01,,Overcast,230,2012-11-23 05:35:00
12:55 AM,51.3,45.7,81,29.91,7.0,SW,20.7,32.2,0.01,,Overcast,230,2012-11-23 05:55:00
1:15 AM,51.1,46.6,85,29.91,5.0,SW,20.7,27.6,0.02,Rain,Light Rain,230,2012-11-23 06:15:00
1:35 AM,50.9,47.5,88,29.90,4.0,WSW,17.3,27.6,0.05,Rain,Light Rain,240,2012-11-23 06:35:00
1:55 AM,50.9,48.7,92,29.89,4.0,WSW,16.1,23.0,0.09,Rain,Light Rain,240,2012-11-23 06:55:00
2:15 AM,51.3,49.3,93,29.89,7.0,WSW,17.3,23.0,N/A,,Overcast,250,2012-11-23 07:15:00
2:35 AM,51.8,49.6,92,29.90,7.0,WSW,18.4,27.6,N/A,,Overcast,250,2012-11-23 07:35:00
2:55 AM,51.8,50.0,94,29.90,7.0,WSW,21.9,28.8,N/A,,Overcast,250,2012-11-23 07:55:00
3:15 AM,52.0,49.6,92,29.90,7.0,WSW,23.0,27.6,N/A,,Overcast,250,2012-11-23 08:15:00
3:35 AM,51.8,48.4,88,29.91,5.0,West,27.6,33.4,N/A,Rain,Light Rain,280,2012-11-23 08:35:00
3:55 AM,47.5,41.2,79,29.92,10.0,West,25.3,35.7,N/A,Rain,Light Rain,280,2012-11-23 08:55:00
4:15 AM,43.9,37.8,79,29.93,10.0,WNW,21.9,27.6,N/A,Rain,Light Rain,290,2012-11-23 09:15:00
4:35 AM,42.6,37.0,81,29.94,7.0,WNW,25.3,32.2,N/A,,Scattered Clouds,290,2012-11-23 09:35:00
4:55 AM,41.2,35.1,79,29.94,7.0,WNW,19.6,28.8,N/A,,Scattered Clouds,290,2012-11-23 09:55:00
5:15 AM,39.7,34.3,81,29.94,7.0,West,13.8,-,N/A,,Unknown,280,2012-11-23 10:15:00
5:35 AM,39.4,34.5,83,29.95,10.0,West,21.9,-,N/A,,Mostly Cloudy,280,2012-11-23 10:35:00
5:55 AM,38.5,33.4,82,29.95,10.0,West,17.3,25.3,N/A,,Scattered Clouds,280,2012-11-23 10:55:00
6:15 AM,37.8,33.1,83,29.96,7.0,West,19.6,27.6,N/A,,Scattered Clouds,280,2012-11-23 11:15:00
6:35 AM,37.4,32.4,82,29.96,5.0,West,15.0,-,N/A,Snow,Light Snow,280,2012-11-23 11:35:00
6:55 AM,36.9,32.2,83,29.96,7.0,West,17.3,23.0,N/A,,Clear,270,2012-11-23 11:55:00
7:15 AM,36.9,31.8,82,29.96,7.0,West,13.8,20.7,N/A,,Clear,270,2012-11-23 12:15:00
7:35 AM,36.1,31.8,84,29.96,10.0,West,13.8,21.9,N/A,,Clear,260,2012-11-23 12:35:00
7:55 AM,35.4,31.3,85,29.97,10.0,WSW,13.8,-,N/A,,Clear,250,2012-11-23 12:55:00
8:15 AM,35.1,31.1,85,29.96,10.0,WSW,16.1,-,N/A,,Clear,250,2012-11-23 13:15:00
8:35 AM,35.2,31.3,85,29.97,10.0,WSW,15.0,-,N/A,,Scattered Clouds,250,2012-11-23 13:35:00
9:15 AM,36.1,31.8,84,29.97,7.0,West,20.7,27.6,N/A,,Mostly Cloudy,260,2012-11-23 14:15:00
9:35 AM,36.7,30.0,77,29.98,7.0,West,24.2,35.7,N/A,,Mostly Cloudy,280,2012-11-23 14:35:00
10:15 AM,36.3,28.6,74,29.99,10.0,West,32.2,39.1,N/A,,Overcast,280,2012-11-23 15:15:00
10:35 AM,35.6,27.5,72,30.00,10.0,WNW,28.8,36.8,N/A,,Overcast,290,2012-11-23 15:35:00
11:15 AM,33.6,26.1,74,30.02,10.0,West,27.6,35.7,N/A,,Overcast,280,2012-11-23 16:15:00
11:35 AM,33.4,26.1,74,30.02,10.0,West,28.8,38.0,N/A,,Overcast,280,2012-11-23 16:35:00
11:55 AM,33.4,25.7,73,30.02,10.0,West,27.6,36.8,N/A,,Overcast,280,2012-11-23 16:55:00
12:15 PM,33.3,25.2,72,30.01,10.0,WNW,28.8,38.0,N/A,,Overcast,290,2012-11-23 17:15:00
12:35 PM,33.1,25.2,73,30.02,7.0,WNW,24.2,32.2,N/A,,Overcast,290,2012-11-23 17:35:00
12:55 PM,32.2,24.3,73,30.02,10.0,WNW,25.3,34.5,N/A,,Overcast,290,2012-11-23 17:55:00
1:15 PM,32.0,24.4,74,30.02,7.0,WNW,21.9,28.8,N/A,,Overcast,290,2012-11-23 18:15:00
1:35 PM,32.0,24.4,74,30.02,10.0,West,32.2,42.6,N/A,,Overcast,280,2012-11-23 18:35:00
1:55 PM,32.0,23.9,72,30.03,10.0,West,32.2,41.4,N/A,,Overcast,280,2012-11-23 18:55:00
2:15 PM,31.5,23.7,73,30.03,10.0,WNW,26.5,39.1,N/A,,Overcast,290,2012-11-23 19:15:00
2:35 PM,31.1,21.9,69,30.04,10.0,WNW,24.2,36.8,N/A,,Overcast,300,2012-11-23 19:35:00
2:55 PM,30.9,21.4,68,30.05,10.0,WNW,21.9,32.2,N/A,,Overcast,290,2012-11-23 19:55:00
3:15 PM,31.1,21.7,68,30.06,10.0,WNW,28.8,36.8,N/A,,Overcast,290,2012-11-23 20:15:00
3:35 PM,31.1,21.2,67,30.06,10.0,WNW,25.3,33.4,N/A,,Overcast,300,2012-11-23 20:35:00
3:55 PM,30.7,21.2,68,30.07,7.0,WNW,20.7,28.8,N/A,,Overcast,300,2012-11-23 20:55:00
4:15 PM,30.2,21.0,69,30.09,10.0,WNW,19.6,28.8,N/A,,Overcast,300,2012-11-23 21:15:00
4:35 PM,30.2,21.4,70,30.11,10.0,WNW,19.6,26.5,N/A,,Overcast,300,2012-11-23 21:35:00
4:55 PM,30.0,21.6,71,30.12,10.0,WNW,18.4,28.8,N/A,,Overcast,290,2012-11-23 21:55:00
5:15 PM,30.0,21.7,71,30.12,10.0,WNW,21.9,26.5,N/A,,Overcast,290,2012-11-23 22:15:00
5:35 PM,29.8,21.0,70,30.13,10.0,WNW,18.4,28.8,N/A,,Overcast,290,2012-11-23 22:35:00
5:55 PM,29.8,20.8,69,30.13,10.0,WNW,24.2,29.9,N/A,,Overcast,290,2012-11-23 22:55:00
6:15 PM,29.5,19.6,67,30.14,10.0,WNW,18.4,26.5,N/A,,Overcast,300,2012-11-23 23:15:00
6:35 PM,29.3,19.6,67,30.14,7.0,WNW,16.1,24.2,N/A,,Overcast,300,2012-11-23 23:35:00
6:55 PM,29.3,19.6,67,30.16,10.0,NW,18.4,25.3,N/A,,Overcast,310,2012-11-23 23:55:00
7:15 PM,29.3,18.9,65,30.16,10.0,WNW,20.7,29.9,N/A,,Overcast,300,2012-11-24 00:15:00
7:35 PM,29.1,19.0,66,30.17,10.0,NW,17.3,20.7,N/A,,Overcast,310,2012-11-24 00:35:00
8:15 PM,29.1,18.5,65,30.17,10.0,WNW,18.4,26.5,N/A,,Overcast,300,2012-11-24 01:15:00
8:35 PM,28.9,18.5,65,30.18,10.0,WNW,18.4,25.3,N/A,,Overcast,290,2012-11-24 01:35:00
8:55 PM,28.8,19.0,67,30.18,10.0,WNW,12.7,20.7,N/A,,Overcast,290,2012-11-24 01:55:00
9:15 PM,28.4,18.7,67,30.18,10.0,WNW,18.4,-,N/A,,Overcast,290,2012-11-24 02:15:00
9:35 PM,28.4,19.0,68,30.18,10.0,West,16.1,23.0,N/A,,Overcast,270,2012-11-24 02:35:00
9:55 PM,28.4,19.8,70,30.18,10.0,West,13.8,-,N/A,,Overcast,280,2012-11-24 02:55:00
10:15 PM,28.4,19.6,70,30.17,10.0,West,16.1,-,N/A,,Overcast,280,2012-11-24 03:15:00
10:35 PM,28.2,19.4,70,30.17,10.0,West,16.1,-,N/A,,Overcast,270,2012-11-24 03:35:00
11:15 PM,28.0,19.4,70,30.17,10.0,West,13.8,-,N/A,,Overcast,280,2012-11-24 04:15:00
11:35 PM,27.9,19.6,71,30.17,10.0,West,15.0,-,N/A,,Overcast,270,2012-11-24 04:35:00
11:55 PM,27.5,19.4,72,30.17,10.0,West,12.7,-,N/A,,Overcast,280,2012-11-24 04:55:00